User: anonymous
Location: Brno
(49.2000°N, 16.6330°E)
Time: 15:42:24
(UTC+02:00)
Language:

CARTOSAT-1 - Orbit

View from above orbital plane
View from above orbital plane
View from above satellite
View from above satellite

Ground track
Ground track

The orbit data is extracted from the following two-line orbital elements,

1 28649U 05017A   14261.14551017 -.00000736  00000-0 -83225-4 0  6045
2 28649 097.8264 333.3307 0002574 052.4107 307.7479 14.83459358507274
Epoch (UTC): 18 September 2014 03:29:32
Eccentricity: 0.0002574
inclination: 97.8264°
perigee height: 616 km
apogee height: 620 km
right ascension of ascending node: 333.3307°
argument of perigee: 52.4107°
revolutions per day: 14.83459358
mean anomaly at epoch: 307.7479°
orbit number at epoch: 50727

The dashed part of the orbit path shows where the satellite is in the earth's shadow,  

DLR